Home > Weather > Sidney > Past weeks

Flag for USA Past Weather in Sidney, Montana, USA — Yesterday and Last 2 Weeks

Now
57 °F

Passing clouds.


Feels Like: 53 °F
Forecast: 56 / 70 °F
Wind: 17 mph from Northwest

Location: Sidney-Richland

Current Time: Jun 25, 2016 at 6:25:24 AM

Latest Report: Jun 25, 2016 at 5:56 AM


Visibility: 10 mi

Pressure: 29.84 "Hg (27.82 "Hg at 591m altitude)

Humidity: 67%

Dew Point: 46 °F

Location of SidneyLocation

Past Weather in Sidney — Graph

°F

Sidney Temperature Yesterday

Maximum temperature yesterday: 88 °F (at 5:56 PM)
Minimum temperature yesterday: 60 °F (at 8:56 PM)
Average temperature yesterday: 72 °F

High & Low Weather Summary for the Past Weeks

 TemperatureHumidityPressure
High90 °F (Jun 10, 4:35 PM)100% (Jun 13, 4:35 AM)30.42 "Hg (Jun 13, 4:35 AM)
Low46 °F (Jun 23, 4:35 AM)18% (Jun 19, 2:15 PM)29.54 "Hg (Jun 24, 6:56 PM)
Average69 °F61%30.25 "Hg
* Reported Jun 10 5:15 AM — Jun 25 5:15 AM, Sidney, Weather by CustomWeather, © 2016

Note: Actual official high and low records may vary slightly from our data, if they occured in-between our weather recording intervals... More about our weather records

Advertising

Sidney Weather History for the Previous 24 Hours

Scroll right to see more
 ConditionsComfort  
Time TempWeatherWind HumidityBarometerVisibility
5:15 AM
Sat, Jun 25
57 °FClear.20 mph72%30.41 "Hg10 mi
4:56 AM57 °FClear.16 mph74%29.82 "Hg10 mi
4:35 AM57 °FPassing clouds.21 mph77%30.41 "Hg10 mi
4:15 AM57 °FPassing clouds.18 mph82%30.41 "Hg10 mi
3:56 AM59 °FClear.23 mph78%29.79 "Hg10 mi
3:35 AM59 °FClear.22 mph82%30.41 "Hg10 mi
3:15 AM59 °FClear.21 mph82%30.41 "Hg10 mi
2:56 AM61 °FPassing clouds.21 mph72%29.78 "Hg10 mi
2:35 AM61 °FOvercast.18 mph77%30.41 "Hg10 mi
2:15 AM61 °FOvercast.17 mph77%30.41 "Hg10 mi
1:55 AM61 °FOvercast.20 mph77%30.41 "Hg10 mi
1:35 AM59 °FPassing clouds.17 mph82%30.41 "Hg10 mi
1:15 AM59 °FPassing clouds.14 mph82%30.41 "Hg10 mi
12:56 AM60 °FLight rain. Partly cloudy.14 mph78%29.72 "Hg10 mi
12:35 AM61 °FOvercast.13 mph77%30.41 "Hg10 mi
12:15 AM63 °FOvercast.18 mph68%30.41 "Hg10 mi
11:56 PM
Fri, Jun 24
62 °FPassing clouds.22 mph73%29.74 "Hg10 mi
11:35 PM61 °FPassing clouds.23 mph77%30.41 "Hg10 mi
11:15 PM61 °FMostly cloudy.29 mph83%30.41 "Hg10 mi
10:56 PM61 °FPassing clouds.32 mph81%29.73 "Hg10 mi
10:35 PM63 °FPassing clouds.17 mph77%30.41 "Hg10 mi
10:15 PM64 °FClear.12 mph73%30.41 "Hg10 mi
9:56 PM62 °FSunny.21 mph80%29.67 "Hg10 mi
9:35 PM63 °FPassing clouds.29 mph77%30.41 "Hg10 mi
9:15 PM61 °FScattered clouds.36 mph83%30.41 "Hg10 mi
8:56 PM60 °FThunderstorms. Broken clouds.38 mph90%29.67 "Hg10 mi
8:35 PM63 °FBroken clouds.40 mph83%30.41 "Hg4 mi
8:15 PM81 °FScattered clouds.12 mph58%30.40 "Hg10 mi
7:56 PM80 °FSunny.5 mph58%29.57 "Hg10 mi
7:35 PM81 °FSunny.10 mph58%30.40 "Hg10 mi
7:15 PM82 °FSunny.9 mph55%30.40 "Hg10 mi
6:56 PM85 °FSunny.9 mph46%29.54 "Hg10 mi
6:35 PM86 °FSunny.12 mph46%30.40 "Hg10 mi
6:15 PM88 °FSunny.9 mph43%30.40 "Hg10 mi
5:56 PM88 °FSunny.8 mph42%29.59 "Hg10 mi
5:35 PM88 °FSunny.5 mph43%30.40 "Hg9 mi
5:15 PM88 °FSunny.8 mph43%30.40 "Hg10 mi
4:56 PM87 °FSunny.3 mph43%29.62 "Hg10 mi
4:35 PM86 °FSunny.3 mph46%30.40 "Hg10 mi
4:15 PM88 °FSunny.3 mph43%30.40 "Hg10 mi
3:56 PM87 °FSunny.No wind45%29.65 "Hg10 mi
3:35 PM84 °FSunny.5 mph48%30.40 "Hg10 mi
2:56 PM83 °FSunny.3 mph51%29.67 "Hg10 mi
2:15 PM82 °FSunny.7 mph51%30.41 "Hg10 mi
1:56 PM83 °FSunny.5 mph51%29.67 "Hg10 mi
1:35 PM82 °FSunny.5 mph51%30.41 "Hg10 mi
1:15 PM81 °FSunny.6 mph54%30.41 "Hg10 mi
12:56 PM81 °FSunny.5 mph51%29.68 "Hg10 mi
12:35 PM81 °FSunny.7 mph54%30.41 "Hg10 mi
12:15 PM81 °FPassing clouds.9 mph54%30.41 "Hg10 mi
11:56 AM78 °FScattered clouds.12 mph56%29.71 "Hg10 mi
11:35 AM79 °FSunny.7 mph54%30.41 "Hg10 mi
11:15 AM79 °FSunny.8 mph54%30.41 "Hg10 mi
10:56 AM77 °FSunny.8 mph56%29.70 "Hg10 mi
10:35 AM75 °FSunny.9 mph57%30.41 "Hg10 mi
10:15 AM75 °FSunny.10 mph57%30.41 "Hg10 mi
9:56 AM74 °FSunny.12 mph60%29.71 "Hg10 mi
9:35 AM73 °FSunny.12 mph61%30.41 "Hg10 mi
9:15 AM73 °FSunny.8 mph61%30.41 "Hg10 mi
8:56 AM71 °FSunny.No wind66%29.72 "Hg10 mi
8:35 AM70 °FSunny.5 mph64%30.41 "Hg10 mi
8:15 AM70 °FSunny.5 mph64%30.41 "Hg10 mi
7:56 AM67 °FSunny.5 mph71%29.72 "Hg10 mi
7:35 AM66 °FSunny.7 mph73%30.41 "Hg10 mi
7:15 AM64 °FSunny.7 mph78%30.41 "Hg10 mi
6:56 AM65 °FSunny.8 mph73%29.72 "Hg10 mi
6:35 AM64 °FSunny.7 mph73%30.41 "Hg10 mi
6:15 AM63 °FSunny.7 mph83%30.41 "Hg10 mi
Weather by CustomWeather, © 2016

See weather overviewHow to use our weather pages